Stations météo

Publicité
Bourges, France (7255): Température de l'air & dewpoint: 13.09.2020 16:00:00 - 19.09.2020 16:00:00 (CEST)Bourges, France (7255): Température de l'air 5cm: 13.09.2020 16:00:00 - 19.09.2020 16:00:00 (CEST)Bourges, France (7255): Température de l'air -20cm & Température de l'air -100cm: 13.09.2020 16:00:00 - 19.09.2020 16:00:00 (CEST)Bourges, France (7255): Vitesse du vent & gusts: 13.09.2020 16:00:00 - 19.09.2020 16:00:00 (CEST)Bourges, France (7255): Direction du vent: 13.09.2020 16:00:00 - 19.09.2020 16:00:00 (CEST)Bourges, France (7255): reduced air pressure: 13.09.2020 16:00:00 - 19.09.2020 16:00:00 (CEST)Bourges, France (7255): visibility: 13.09.2020 16:00:00 - 19.09.2020 16:00:00 (CEST)Bourges, France (7255): Ensoleillement: 13.09.2020 16:00:00 - 19.09.2020 16:00:00 (CEST)Bourges, France (7255): Quantités de précipitations: 13.09.2020 16:00:00 - 19.09.2020 16:00:00 (CEST)
Date & Time tt [°C] td [°C] tt 5cm [°C] tt -20cm [°C] tt -100cm [°C] ff [km/h] ff [knt] fx [km/h] fx [knt] dd ppp [hPa] vv [km] sd [min] rr [mm]
19.09.2020 16:00:00 28,0 14,3 29,8 24,4 21,3 4 2 18 10 E 1011,3 20 21 0,0
19.09.2020 15:00:00 27,4 14,8 29,7 24,0 21,3 7 4 16 9 S 1011,6 20 0 0,0
19.09.2020 14:00:00 27,7 15,4 29,4 23,6 21,3 6 3 26 14 SE 1011,9 20 36 0,0
19.09.2020 13:00:00 26,0 15,7 28,8 23,3 21,3 14 7 23 12 SSW 1012,6 20 36 0,0
19.09.2020 12:00:00 25,2 16,6 25,9 23,2 21,3 13 7 20 11 SSE 1013,0 20 60 0,2
19.09.2020 11:00:00 21,7 17,5 19,5 23,3 21,3 8 4 11 6 ESE 1013,6 20 3 0,0
19.09.2020 10:00:00 19,5 17,1 17,9 23,4 21,3 4 2 26 14 SSE 1013,8 20 0 1,0
19.09.2020 09:00:00 20,2 16,0 18,0 23,6 21,3 14 8 26 14 S 1013,7 20 0 0,0
19.09.2020 08:00:00 20,7 15,7 18,3 23,8 21,3 14 8 29 16 SE 1012,9 20 0 0,2
19.09.2020 07:00:00 19,9 15,7 19,6 24,0 21,3 14 8 20 11 SE 1012,7 20 0 0,0
19.09.2020 06:00:00 19,8 16,4 19,6 24,3 21,3 9 5 13 7 E 1012,8 20 0 0,0
19.09.2020 05:00:00 19,8 17,4 19,1 24,5 21,3 4 2 15 8 E 1013,4 20 0 0,0
19.09.2020 04:00:00 20,2 17,4 18,7 24,7 21,3 7 4 13 7 SE 1013,6 20 0 0,0
19.09.2020 03:00:00 21,3 16,5 19,6 24,9 21,3 7 4 19 10 S 1014,0 20 0 0,0
19.09.2020 02:00:00 22,7 15,8 19,7 25,2 21,3 16 8 37 20 SW 1014,3 20 0 0,0
19.09.2020 01:00:00 24,3 14,4 23,7 25,4 21,3 15 8 24 13 SSW 1013,7 20 0 0,0
19.09.2020 00:00:00 24,9 14,4 24,2 25,6 21,3 11 6 32 18 SW 1013,0 20 0 0,0
18.09.2020 23:00:00 26,5 13,3 25,3 25,8 21,3 16 9 30 16 SW 1012,7 20 0 0,0
18.09.2020 22:00:00 27,8 13,0 26,3 26,0 21,3 5 3 19 10 WSW 1012,1 20 0 0,0
18.09.2020 21:00:00 29,1 12,1 28,3 26,1 21,3 11 6 26 14 SSW 1012,0 20 0 0,0
18.09.2020 20:00:00 30,6 12,0 29,5 26,2 21,3 9 5 36 19 W 1011,2 20 0 0,0
18.09.2020 19:00:00 31,6 11,9 31,2 26,0 21,3 11 6 18 10 SSE 1011,0 20 8 0,0
18.09.2020 18:00:00 32,3 12,0 33,1 25,7 21,3 11 6 26 14 ESE 1011,3 20 23 0,0
18.09.2020 17:00:00 32,9 11,4 35,6 25,2 21,3 18 10 35 19 SE 1011,4 18 55 0,0
18.09.2020 16:00:00 32,9 12,0 35,2 24,6 21,2 16 8 34 19 SE 1011,9 20 49 0,0
18.09.2020 15:00:00 31,9 12,2 34,6 24,0 21,3 20 11 34 18 ESE 1012,6 20 60 0,0
18.09.2020 14:00:00 30,3 13,6 32,2 23,3 21,3 16 9 29 16 E 1013,3 20 60 0,0
18.09.2020 13:00:00 28,8 13,5 31,3 22,8 21,2 17 9 30 16 ESE 1014,0 18 60 0,0
18.09.2020 12:00:00 26,5 14,6 27,4 22,5 21,2 20 11 29 16 ESE 1014,7 20 60 0,0
18.09.2020 11:00:00 23,2 15,0 24,1 22,4 21,2 18 10 29 16 E 1015,4 20 60 0,0
18.09.2020 10:00:00 20,7 14,3 20,7 22,5 21,2 22 12 32 18 E 1015,3 20 60 0,0
18.09.2020 09:00:00 18,3 14,0 16,4 22,7 21,2 20 11 30 16 E 1015,5 20 60 0,0
18.09.2020 08:00:00 16,4 13,3 16,3 23,0 21,2 16 9 25 14 E 1015,6 20 5 0,0
18.09.2020 07:00:00 16,8 13,3 16,5 23,2 21,2 17 9 25 13 E 1015,6 20 0 0,0
18.09.2020 06:00:00 17,4 13,1 17,1 23,4 21,2 15 8 27 15 E 1015,6 20 0 0,0
18.09.2020 05:00:00 18,3 13,2 17,9 23,7 21,2 14 8 25 14 E 1015,7 20 0 0,0
18.09.2020 04:00:00 19,3 13,0 18,7 24,0 21,2 16 9 26 14 E 1016,4 20 0 0,0
18.09.2020 03:00:00 19,5 12,7 18,7 24,3 21,2 13 7 22 12 E 1016,6 20 0 0,0
18.09.2020 02:00:00 21,1 12,5 20,2 24,6 21,2 15 8 32 18 ENE 1016,4 20 0 0,0
18.09.2020 01:00:00 21,8 12,1 21,0 24,9 21,2 19 10 35 19 ENE 1016,7 20 0 0,0
18.09.2020 00:00:00 22,5 11,9 21,7 25,1 21,2 19 10 35 19 ENE 1016,9 20 0 0,0
17.09.2020 23:00:00 23,3 12,0 22,6 25,5 21,2 19 11 34 18 ENE 1017,0 20 0 0,0
17.09.2020 22:00:00 24,0 12,0 23,2 25,8 21,2 17 9 31 17 NE 1017,3 20 0 0,0
17.09.2020 21:00:00 25,2 11,7 24,3 26,0 21,2 15 8 30 16 NE 1016,8 20 0 0,0
17.09.2020 20:00:00 26,6 11,9 25,6 26,1 21,2 14 8 35 19 NE 1016,4 20 35 0,0
17.09.2020 19:00:00 28,5 11,5 28,4 26,0 21,2 21 12 36 19 NE 1016,2 20 60 0,0
17.09.2020 18:00:00 29,7 12,2 32,4 25,8 21,2 23 12 38 20 ENE 1016,2 20 60 0,0
17.09.2020 17:00:00 30,4 12,8 34,0 25,3 21,2 21 11 36 19 ENE 1016,6 20 60 0,0
17.09.2020 16:00:00 30,0 13,7 34,0 24,7 21,2 21 11 35 19 ENE 1017,1 20 60 0,0
17.09.2020 15:00:00 29,6 14,2 33,6 24,1 21,1 21 11 36 20 NE 1017,6 20 60 0,0
17.09.2020 14:00:00 28,7 14,1 33,0 23,5 21,1 18 10 36 19 NE 1018,4 20 60 0,0
17.09.2020 13:00:00 27,8 14,1 31,0 23,0 21,1 18 10 31 17 NE 1018,9 20 60 0,0
17.09.2020 12:00:00 26,4 13,8 29,1 22,6 21,1 15 8 29 16 E 1019,5 20 60 0,0
17.09.2020 11:00:00 25,1 13,6 27,3 22,5 21,1 18 10 29 15 ENE 1019,7 20 60 0,0
17.09.2020 10:00:00 23,0 13,2 23,6 22,5 21,1 9 5 21 11 ENE 1019,7 20 60 0,0
17.09.2020 09:00:00 21,0 12,4 18,2 22,7 21,1 11 6 16 9 ENE 1019,6 20 60 0,0
17.09.2020 08:00:00 18,8 12,1 16,9 23,0 21,1 7 4 11 6 ENE 1019,8 20 7 0,0
17.09.2020 07:00:00 18,2 11,7 17,4 23,3 21,1 9 5 18 10 E 1019,5 20 0 0,0
17.09.2020 06:00:00 18,6 11,9 17,5 23,5 21,1 8 5 15 8 E 1019,3 20 0 0,0
17.09.2020 05:00:00 19,6 12,4 15,2 23,9 21,1 11 6 29 16 NE 1019,1 20 0 0,0
17.09.2020 04:00:00 18,4 12,8 15,4 24,2 21,1 4 2 9 5 NE 1019,0 20 0 0,0
17.09.2020 03:00:00 19,3 13,0 15,7 24,5 21,1 7 4 9 5 NNE 1019,4 20 0 0,0
17.09.2020 02:00:00 20,6 13,3 18,7 24,9 21,1 8 4 12 7 NE 1019,5 20 0 0,0
17.09.2020 01:00:00 21,1 13,0 17,9 25,2 21,1 3 2 6 3 N 1019,5 20 0 0,0
17.09.2020 00:00:00 21,6 12,7 18,6 25,6 21,0 6 4 23 12 S 1019,6 20 0 0,0
16.09.2020 23:00:00 22,4 14,0 19,6 25,9 21,0 6 3 16 9 ESE 1019,3 20 0 0,0
16.09.2020 22:00:00 24,2 14,6 23,0 26,1 21,0 6 4 11 6 NNW 1018,9 20 0 0,0
16.09.2020 21:00:00 25,3 14,1 24,3 26,3 21,0 6 3 14 7 NNW 1018,5 20 0 0,0
16.09.2020 20:00:00 27,2 14,6 26,7 26,3 21,0 7 4 17 9 NNW 1017,9 20 37 0,0
16.09.2020 19:00:00 29,0 14,8 30,0 26,1 21,0 9 5 22 12 NNW 1017,4 20 56 0,0
16.09.2020 18:00:00 30,1 15,0 34,1 25,8 21,0 12 7 24 13 NNW 1017,1 20 60 0,0
16.09.2020 17:00:00 30,8 15,6 34,2 25,2 21,0 11 6 23 12 NW 1017,2 20 58 0,0
16.09.2020 16:00:00 30,3 15,2 34,2 24,6 21,0 11 6 20 11 NW 1017,9 20 57 0,0
16.09.2020 15:00:00 30,1 13,4 32,4 24,0 21,0 9 5 19 11 N 1018,3 20 42 0,0
16.09.2020 14:00:00 28,1 14,7 31,9 23,4 21,0 8 4 16 9 N 1019,1 20 25 0,0
16.09.2020 13:00:00 27,5 15,5 32,4 22,9 21,0 7 4 15 8 NNW 1019,7 20 60 0,0
16.09.2020 12:00:00 23,8 15,0 24,4 22,8 21,0 6 4 13 7 WNW 1020,1 20 16 0,0
16.09.2020 11:00:00 21,8 14,9 22,4 22,7 20,9 7 4 11 6 WNW 1020,4 20 0 0,0
16.09.2020 10:00:00 20,7 15,0 22,0 22,7 21,0 7 4 11 6 WNW 1020,0 20 3 0,0
16.09.2020 09:00:00 20,5 15,9 19,7 22,9 20,9 3 2 10 5 WNW 1019,9 20 52 0,0
16.09.2020 08:00:00 19,0 15,7 17,4 23,1 20,9 3 1 8 5 W 1019,7 20 8 0,0
16.09.2020 07:00:00 18,2 15,3 16,6 23,3 20,9 5 3 8 5 W 1019,5 20 0 0,0
16.09.2020 06:00:00 18,1 14,8 16,7 23,7 20,9 3 1 7 4 W 1019,3 20 0 0,0
16.09.2020 05:00:00 18,6 14,9 16,7 23,9 20,9 4 2 9 5 W 1019,4 20 0 0,0
16.09.2020 04:00:00 18,6 13,7 15,4 24,2 20,9 6 3 9 5 WSW 1019,5 20 0 0,0
16.09.2020 03:00:00 20,2 13,6 18,1 24,5 20,9 5 3 11 6 WSW 1019,3 20 0 0,0
16.09.2020 02:00:00 21,7 13,3 20,1 24,9 20,9 6 3 10 5 W 1019,3 20 0 0,0
16.09.2020 01:00:00 23,0 12,6 19,1 25,2 20,9 6 4 13 7 W 1019,2 20 0 0,0
16.09.2020 00:00:00 22,3 11,4 18,4 25,6 20,9 6 3 16 8 WSW 1019,1 20 0 0,0
15.09.2020 23:00:00 23,5 11,2 19,1 26,0 20,9 0 0 7 4 N 1018,8 20 0 0,0
15.09.2020 22:00:00 25,3 10,3 20,1 26,3 20,9 2 1 6 3 WSW 1018,4 20 0 0,0
15.09.2020 21:00:00 25,7 10,3 20,8 26,6 20,9 4 2 5 3 N 1018,0 20 0 0,0
15.09.2020 20:00:00 29,1 10,2 24,7 26,7 20,9 4 2 7 4 N 1017,3 20 30 0,0
15.09.2020 19:00:00 32,2 9,7 31,7 26,5 20,9 4 2 13 7 W 1016,9 20 55 0,0
15.09.2020 18:00:00 32,9 9,0 36,2 26,1 20,9 7 4 21 12 W 1016,9 20 60 0,0
15.09.2020 17:00:00 33,2 9,9 37,6 25,5 20,9 11 6 31 17 SW 1017,1 20 60 0,0
15.09.2020 16:00:00 32,1 10,2 37,9 24,8 20,9 4 2 20 11 ENE 1017,7 20 60 0,0
15.09.2020 15:00:00 32,1 10,7 36,5 23,9 20,9 7 4 24 13 S 1018,2 20 60 0,0
15.09.2020 14:00:00 31,0 10,9 35,8 23,2 20,9 10 5 18 10 SE 1018,8 20 60 0,0
15.09.2020 13:00:00 29,7 10,8 34,3 22,5 20,9 6 4 13 7 SSE 1019,3 20 60 0,0
15.09.2020 12:00:00 28,4 10,6 33,1 22,0 20,8 7 4 16 9 W 1020,1 20 60 0,0
15.09.2020 11:00:00 26,9 10,1 27,5 21,8 20,8 7 4 14 8 S 1020,4 20 60 0,0
15.09.2020 10:00:00 22,6 11,3 23,0 21,9 20,8 8 5 13 7 SE 1020,3 20 60 0,0
15.09.2020 09:00:00 19,0 11,8 16,2 22,1 20,8 8 4 13 7 ESE 1020,4 20 60 0,0
15.09.2020 08:00:00 16,3 9,9 14,8 22,4 20,8 8 5 10 6 E 1020,5 20 9 0,0
15.09.2020 07:00:00 15,7 9,8 14,8 22,7 20,8 10 5 10 6 E 1020,1 20 0 0,0
15.09.2020 06:00:00 17,4 10,0 15,6 23,0 20,8 9 5 14 7 E 1019,8 20 0 0,0
15.09.2020 05:00:00 17,7 10,6 15,1 23,3 20,8 6 3 10 5 E 1019,7 20 0 0,0
15.09.2020 04:00:00 17,9 11,0 16,0 23,6 20,8 8 4 11 6 ESE 1019,8 20 0 0,0
15.09.2020 03:00:00 19,0 9,5 16,4 24,0 20,8 5 3 8 4 ESE 1019,8 20 0 0,0
15.09.2020 02:00:00 19,1 9,6 16,9 24,4 20,8 7 4 9 5 ESE 1019,8 20 0 0,0
15.09.2020 01:00:00 20,6 9,8 17,8 24,7 20,8 5 3 10 5 SE 1019,7 20 0 0,0
15.09.2020 00:00:00 21,7 9,6 18,7 25,1 20,8 7 4 12 6 ESE 1019,3 20 0 0,0
14.09.2020 23:00:00 23,8 10,8 19,6 25,5 20,8 5 3 8 5 E 1018,9 20 0 0,0
14.09.2020 22:00:00 25,2 8,2 20,2 25,9 20,8 4 2 5 3 ENE 1018,9 20 0 0,0
14.09.2020 21:00:00 27,5 6,8 21,1 26,1 20,8 2 1 5 3 ESE 1018,3 20 0 0,0
14.09.2020 20:00:00 30,8 7,3 25,3 26,2 20,8 4 2 14 7 S 1017,9 20 41 0,0
14.09.2020 19:00:00 34,0 7,9 34,7 26,0 20,8 8 4 23 13 SSW 1017,7 20 60 0,0
14.09.2020 18:00:00 34,9 7,1 38,4 25,6 20,8 18 10 24 13 SSW 1017,9 20 60 0,0
14.09.2020 17:00:00 35,4 8,3 39,9 24,9 20,8 10 6 25 14 S 1018,0 20 60 0,0
14.09.2020 16:00:00 35,3 9,7 40,0 24,2 20,8 19 11 34 19 SSW 1018,7 20 60 0,0
14.09.2020 15:00:00 34,7 9,2 39,2 23,3 20,8 18 10 29 15 S 1019,4 20 60 0,0
14.09.2020 14:00:00 33,6 10,9 37,7 22,5 20,8 8 5 23 12 SSE 1020,2 20 60 0,0
14.09.2020 13:00:00 31,8 12,1 34,3 21,8 20,8 8 4 18 10 ESE 1020,9 20 60 0,0
14.09.2020 12:00:00 29,8 12,7 31,3 21,3 20,8 9 5 16 9 ESE 1021,6 20 60 0,0
14.09.2020 11:00:00 25,9 13,1 27,6 21,0 20,8 11 6 16 9 ESE 1022,1 20 60 0,0
14.09.2020 10:00:00 22,6 12,2 23,0 21,0 20,8 8 5 14 8 E 1022,2 20 60 0,0
14.09.2020 09:00:00 18,6 10,4 15,5 21,2 20,8 9 5 14 8 E 1022,3 20 60 0,0
14.09.2020 08:00:00 15,5 8,9 14,4 21,4 20,8 8 4 13 7 E 1022,2 20 11 0,0
14.09.2020 07:00:00 15,3 8,1 14,8 21,7 20,8 9 5 13 7 E 1021,8 20 0 0,0
14.09.2020 06:00:00 16,0 7,7 15,5 22,0 20,8 9 5 15 8 E 1021,7 20 0 0,0
14.09.2020 05:00:00 17,1 7,4 16,4 22,2 20,8 9 5 14 8 E 1021,8 20 0 0,0
14.09.2020 04:00:00 17,7 6,8 16,8 22,5 20,8 11 6 16 8 E 1022,0 20 0 0,0
14.09.2020 03:00:00 17,9 7,0 17,2 22,8 20,8 13 7 16 9 E 1022,3 20 0 0,0
14.09.2020 02:00:00 19,4 6,5 18,3 23,1 20,8 11 6 15 8 E 1022,3 20 0 0,0
14.09.2020 01:00:00 19,0 5,8 18,4 23,5 20,8 13 7 15 8 E 1022,6 20 0 0,0
14.09.2020 00:00:00 20,6 6,2 19,9 23,8 20,8 9 5 16 9 E 1022,7 20 0 0,0
13.09.2020 23:00:00 22,6 5,5 21,2 24,2 20,8 11 6 17 9 ENE 1022,6 20 0 0,0
13.09.2020 22:00:00 23,8 7,0 21,5 24,5 20,8 10 6 15 8 ENE 1022,5 20 0 0,0
13.09.2020 21:00:00 24,8 8,3 21,9 24,7 20,8 8 4 10 6 ENE 1022,1 20 0 0,0
13.09.2020 20:00:00 27,2 7,6 25,5 24,8 20,8 8 5 13 7 ENE 1021,8 20 43 0,0
13.09.2020 19:00:00 29,2 7,1 29,7 24,6 20,8 9 5 18 10 E 1021,8 20 60 0,0
13.09.2020 18:00:00 30,1 7,3 33,0 24,2 20,8 8 5 22 12 ESE 1022,0 20 60 0,0
13.09.2020 17:00:00 30,0 6,6 33,8 23,5 20,8 11 6 21 11 ENE 1022,2 20 60 0,0
13.09.2020 16:00:00 29,6 7,5 33,2 22,8 20,8 9 5 24 13 SE 1022,8 19 60 0,0

tt = Température de l'air
td = dewpoint
tt 5cm = Température de l'air 5cm
tt -20cm = Température de l'air -20cm
tt -100cm = Température de l'air -100cm
ff = Vitesse du vent
fx = gusts
dd = Direction du vent
ppp = reduced air pressure
vv = visibility
sd = Ensoleillement
rr = Quantités de précipitations

stations d'obs. à proximité